Wind_Speed
28 28 28 29 28 27 27 27 27 28 29 30 30 30 30 30 31 27 23 22 23 23 23 23 23 22 22 23 24 26 28 31 32 33 33 33 32 30 29 28 26 26 27 27 28 28 27 26 25 24 24 25 26 26 26 25 25 25 25 25 25 25 24 24 24 24 24 23 22
28 28 28 29 29 28 27 27 27 28 29 30 30 30 30 30 30 27 24 23 24 24 24 24 23 22 21 21 20 21 23 25 27 28 30 31 30 30 29 27 26 25 26 26 27 27 27 25 24 24 23 24 24 25 25 24 24 24 24 25 25 25 24 24 25 25 25 24 24
26 27 27 28 29 28 26 26 27 28 29 29 29 29 29 29 28 25 23 23 24 25 24 24 23 22 21 19 18 18 18 19 20 22 24 25 26 26 25 24 23 24 25 26 26 26 26 25 24 23 23 23 23 24 24 24 23 23 24 25 25 24 24 24 25 25 25 24 25
26 26 27 28 29 28 27 26 28 29 29 29 29 29 28 28 26 24 22 21 23 24 24 22 21 21 21 20 18 17 17 17 17 17 18 20 21 22 22 21 21 22 23 25 25 26 26 25 24 24 23 23 23 23 24 23 23 23 24 25 25 25 24 24 24 24 24 24 25
25 26 27 28 29 29 28 27 28 29 29 29 29 29 28 29 26 23 21 20 20 21 21 20 19 20 21 22 21 19 18 17 16 16 17 18 20 20 20 20 21 21 21 23 24 25 26 26 25 24 23 23 23 23 23 23 23 23 23 24 24 24 24 24 24 24 24 24 24
25 26 27 27 29 29 28 27 28 29 28 28 28 28 28 27 26 24 22 21 21 20 19 19 18 19 21 23 24 23 22 19 18 17 18 19 20 20 20 20 21 20 20 21 23 24 25 26 25 25 24 24 23 23 23 23 23 23 23 23 24 24 24 24 24 24 24 24 24
25 25 26 27 28 28 27 27 28 28 28 28 28 28 28 29 28 27 25 24 23 21 20 19 18 19 22 24 26 26 25 23 21 19 19 20 21 21 21 22 22 21 21 21 22 23 25 26 25 25 25 25 24 23 23 23 23 23 23 23 24 24 24 24 24 24 24 24 24
24 25 25 26 28 28 27 27 28 28 28 27 27 28 30 32 31 30 29 27 25 24 23 21 21 21 23 25 26 28 28 27 24 22 21 22 22 23 23 23 23 23 23 23 23 24 25 25 26 26 26 25 25 24 24 24 24 24 24 24 24 24 24 24 24 24 24 24 25
24 25 25 26 27 27 27 28 28 28 28 27 28 29 31 32 32 32 30 29 28 27 26 25 24 24 24 25 26 27 28 29 27 25 24 23 23 23 24 24 24 24 24 24 25 25 25 26 26 26 26 26 25 24 24 24 25 25 25 25 25 25 24 24 24 24 24 25 26
25 26 26 26 27 28 28 28 28 28 28 28 28 29 30 31 31 31 31 31 30 29 29 28 27 27 26 26 26 27 28 29 29 28 26 25 24 24 24 23 23 23 24 25 25 26 27 27 27 26 26 26 25 25 24 25 25 26 26 25 25 25 25 25 25 25 26 26 27
26 27 27 27 27 28 28 28 28 28 28 28 28 29 30 31 31 31 32 31 31 31 31 31 30 29 28 28 27 27 27 28 29 30 30 30 27 27 26 24 23 24 24 25 26 27 28 28 28 27 26 26 25 25 25 25 26 26 27 26 25 25 25 26 26 27 27 27 28
26 27 27 27 27 28 28 28 27 27 28 27 28 29 30 30 31 31 31 31 31 31 32 32 32 31 30 29 29 28 28 28 29 30 32 33 32 31 29 27 25 25 25 27 28 28 29 29 29 28 27 26 26 25 25 26 26 27 27 27 26 26 26 27 28 28 27 27 28
25 26 26 26 27 28 28 28 27 26 27 27 27 28 29 30 31 31 31 31 31 31 31 32 32 32 32 31 30 29 29 29 29 30 31 33 34 34 32 31 29 27 27 28 29 30 30 30 29 29 28 27 26 26 26 27 27 27 28 28 28 28 28 29 29 28 28 28 27
25 25 26 26 27 27 28 27 26 25 26 26 27 27 28 29 30 31 31 31 31 31 30 31 31 32 32 32 31 31 30 29 29 30 31 32 34 36 36 34 32 30 30 30 31 32 31 31 30 29 29 28 28 27 28 28 28 28 28 29 29 30 30 30 29 29 28 28 28
25 25 25 25 26 27 27 27 25 25 25 26 26 26 27 28 29 30 31 31 31 30 30 30 30 30 31 31 31 31 30 30 30 30 32 33 35 37 38 36 34 33 32 32 33 33 33 32 31 30 29 29 29 29 29 29 29 29 30 30 30 31 30 30 29 29 29 29 28
25 25 25 25 26 26 26 26 25 24 24 25 25 26 26 26 28 29 30 30 30 29 29 29 29 29 30 30 31 31 31 31 31 32 33 35 36 38 38 38 36 35 34 34 34 33 33 33 32 31 30 30 30 30 30 30 30 30 31 31 31 31 30 30 30 29 29 29 29
26 26 26 26 26 26 26 26 24 24 24 25 25 25 25 25 26 28 29 29 29 29 29 29 28 28 29 30 31 32 32 33 33 34 35 36 37 37 38 38 37 36 35 35 34 33 33 32 32 31 31 31 30 30 30 31 31 31 31 31 31 31 30 30 30 30 30 30 29
27 27 27 27 27 27 26 26 25 24 24 25 26 26 25 25 26 27 28 29 29 29 29 29 29 29 30 31 32 33 33 33 33 33 34 35 35 36 37 37 37 36 36 35 34 33 32 32 32 32 32 32 31 31 31 31 31 31 31 31 31 31 31 31 31 30 30 29 28
27 27 28 28 27 27 27 26 25 25 25 25 26 26 26 26 26 26 28 29 29 30 29 30 30 30 31 32 32 33 33 32 32 33 33 34 34 35 36 36 36 36 35 34 33 33 32 32 32 32 32 32 32 32 31 31 30 30 31 31 31 31 32 32 31 30 29 27 25
27 27 28 28 28 28 27 27 26 25 25 26 27 27 27 27 27 27 27 29 29 30 30 30 31 31 31 32 32 32 32 31 32 32 32 33 33 34 35 35 35 35 34 34 33 33 32 32 32 32 33 33 32 32 31 30 30 30 30 31 31 32 32 31 30 29 27 25 24
27 27 27 28 28 28 28 27 26 26 26 26 27 27 28 28 28 27 28 28 29 30 30 30 31 30 30 31 31 31 31 31 31 31 31 32 32 33 33 33 33 33 33 33 33 32 32 32 32 32 32 33 32 32 31 31 30 30 30 30 29 29 29 29 28 27 25 24 24
28 27 27 27 27 28 28 27 27 26 26 26 27 28 28 28 28 28 28 28 29 30 30 30 30 30 29 30 30 30 30 29 29 29 29 29 30 30 31 31 32 32 32 32 32 32 32 32 32 32 32 32 33 33 32 32 31 31 30 28 27 26 25 25 25 25 25 25 25
28 27 27 26 27 27 27 27 27 27 27 27 27 28 28 28 29 29 29 29 29 30 30 30 30 29 29 28 29 29 28 28 28 27 27 27 27 28 29 29 30 30 30 31 31 31 31 31 31 32 32 32 32 33 33 33 32 31 29 27 25 23 22 22 23 24 25 26 26
28 27 26 26 26 27 27 27 27 27 27 27 27 28 28 29 29 29 29 30 30 30 30 29 29 29 28 27 27 27 27 27 26 26 26 25 26 26 27 27 28 29 29 30 30 30 30 31 31 31 31 31 31 32 32 31 31 29 27 25 24 23 22 23 23 24 25 25 25
27 27 26 26 26 27 27 27 27 27 27 27 27 28 28 29 29 29 30 30 30 30 30 30 29 28 27 26 26 26 26 26 26 25 25 25 25 25 25 25 26 26 27 28 28 28 29 29 29 29 29 29 29 29 30 30 29 29 28 27 26 24 24 23 24 24 25 24 24
27 26 26 26 26 27 27 27 28 28 27 27 27 28 28 29 29 29 29 30 30 30 30 30 29 28 27 26 25 25 25 25 25 25 25 25 24 24 24 23 23 24 24 24 25 26 26 27 27 28 28 28 28 28 28 28 29 29 28 28 27 26 25 24 24 24 24 24 24
26 26 26 25 26 26 27 27 27 27 27 27 27 27 28 28 28 28 29 29 29 29 30 29 29 28 27 26 25 25 25 25 25 25 25 25 24 24 23 22 22 22 22 22 23 24 24 25 26 26 27 27 27 26 26 27 27 27 27 27 26 26 25 24 24 23 23 22 22
26 26 26 25 25 26 26 27 27 27 27 27 27 27 27 27 27 28 28 28 28 28 29 29 29 29 28 27 26 25 25 24 24 24 24 24 24 23 23 22 22 22 22 22 23 23 24 24 25 25 26 26 26 26 26 26 26 26 25 25 25 25 24 24 23 22 21 20 19
27 27 26 26 25 25 25 26 26 27 27 27 27 27 27 27 27 27 27 28 28 28 28 28 28 28 28 27 27 26 25 24 24 24 24 23 23 23 23 23 23 23 23 24 24 24 24 24 24 24 24 25 25 25 26 25 25 25 25 25 25 24 23 22 21 20 19 18 17
27 27 27 26 25 25 25 25 26 26 27 27 27 27 27 27 27 27 27 27 28 28 28 28 27 27 27 27 27 26 25 24 24 24 24 24 24 24 24 24 24 24 25 26 26 26 26 26 25 24 24 24 24 25 25 24 24 25 25 24 24 23 22 20 19 18 17 17 16
27 27 27 26 25 25 24 25 25 26 26 26 27 27 27 27 27 27 27 28 28 28 28 28 27 27 27 27 27 26 25 25 25 24 24 25 25 25 25 25 25 25 25 26 27 28 28 28 27 26 25 24 24 24 24 23 23 23 23 23 21 20 19 18 17 17 16 16 17
27 27 27 27 26 25 25 24 25 25 26 26 27 27 28 28 28 28 28 28 27 28 28 28 28 27 27 26 26 26 26 25 25 25 25 25 25 25 25 25 25 24 24 25 26 28 28 29 28 28 27 26 25 25 24 23 22 21 20 19 18 18 17 17 17 17 17 19 21
27 27 27 27 27 26 25 25 24 25 26 26 27 27 28 28 28 28 28 27 27 27 28 28 28 27 26 26 25 25 25 25 25 24 24 24 24 24 25 25 25 24 24 24 25 27 28 28 29 28 28 27 26 25 24 23 20 18 17 17 17 17 17 16 16 17 19 21 23
27 27 27 27 28 27 27 26 25 25 25 26 27 27 28 28 28 27 27 27 27 27 27 28 27 27 26 26 25 25 24 24 24 24 24 24 23 24 24 24 24 24 24 24 25 26 27 27 27 27 27 26 25 24 23 22 19 17 16 15 15 15 14 14 14 16 17 19 20
27 27 27 27 28 28 28 27 26 26 25 26 26 27 27 28 28 28 28 27 27 27 27 27 27 26 26 25 25 25 24 24 24 24 24 24 24 23 23 23 20 21 23 24 24 24 24 25 25 25 25 24 24 23 21 20 18 16 15 14 13 12 12 12 12 13 13 13 13
27 27 27 27 27 28 28 28 27 27 26 26 26 26 27 27 27 27 27 27 27 26 26 26 25 25 25 24 24 24 24 24 24 25 25 25 24 24 23 20 14 15 20 24 24 22 21 22 22 23 23 23 22 21 20 18 16 15 13 11 10 10 10 9 8 8 9 10 11
27 27 27 27 27 27 28 28 28 28 27 27 26 26 26 25 26 26 26 26 25 25 25 24 24 24 23 23 23 24 25 25 25 26 26 25 24 23 19 14 9 10 16 20 22 22 21 20 21 21 21 21 20 19 18 16 15 13 11 9 8 7 6 5 5 5 5 4 6
27 27 27 27 27 27 27 28 28 28 28 28 27 26 25 24 24 24 24 23 23 23 23 23 23 23 23 23 22 20 18 17 19 21 20 17 14 13 12 10 8 8 11 16 19 21 21 21 20 20 20 19 18 17 16 15 14 12 10 8 5 4 5 6 6 5 3 2 1
27 27 27 27 27 27 27 27 28 29 29 28 27 26 25 24 23 22 22 21 21 21 21 21 22 21 21 18 15 7 5 5 5 7 7 8 9 11 12 11 8 7 8 12 16 19 20 20 20 19 19 18 17 17 16 15 14 11 8 6 6 8 9 8 8 7 7 6 3
27 27 27 28 27 27 27 27 28 29 29 29 28 27 25 24 23 22 21 20 20 18 15 12 10 10 12 15 14 12 16 18 19 19 19 18 18 18 16 14 11 8 6 9 12 15 17 18 18 18 18 17 18 18 16 13 11 9 7 8 11 13 13 11 10 10 10 9 7
26 27 27 27 28 27 27 27 27 28 29 29 28 27 26 25 24 22 21 19 16 10 9 14 15 16 18 20 19 19 22 25 25 25 25 24 23 21 19 17 15 12 9 7 7 10 12 14 15 16 15 15 16 15 12 10 9 9 9 11 13 14 15 14 13 12 12 12 11
Wind_Direction
177 177 177 177 176 176 176 177 177 178 179 181 183 185 186 187 189 191 195 199 202 202 200 199 199 201 203 204 204 203 201 201 201 202 203 205 207 207 205 202 198 193 189 189 190 191 192 191 191 191 192 194 196 197 198 199 199 200 202 204 207 209 211 211 213 214 215 216 218
179 179 178 178 178 178 177 178 178 179 180 182 183 184 185 186 188 191 195 200 202 202 200 199 198 199 201 202 201 199 198 197 198 199 201 203 204 205 203 199 194 189 185 185 186 188 189 189 189 190 191 193 194 195 196 198 198 200 203 206 209 210 212 213 215 217 218 219 220
182 180 180 180 180 179 179 179 180 180 181 182 183 183 183 185 187 190 195 199 200 200 199 199 198 198 198 199 198 196 194 193 194 195 196 197 197 196 194 190 185 182 181 182 185 187 188 189 190 191 192 193 193 194 196 198 199 202 204 207 210 212 213 216 218 219 220 222 222
183 182 181 181 182 182 181 180 181 181 181 181 181 182 182 184 186 189 194 198 198 198 198 198 197 196 196 197 198 196 193 190 189 189 188 186 184 183 181 179 176 176 179 182 185 188 190 191 192 193 194 194 195 197 198 199 201 204 207 209 211 212 215 217 219 220 222 223 224
184 183 183 183 183 183 183 181 181 181 181 181 181 182 183 185 187 189 192 195 196 196 196 195 194 193 194 196 198 198 196 192 188 185 182 179 177 176 176 175 176 177 180 184 187 190 193 194 195 196 197 199 200 202 203 203 203 205 208 210 212 214 215 217 219 221 222 223 225
184 184 184 184 185 185 185 183 182 181 182 183 183 184 185 186 188 190 192 193 194 193 192 192 192 192 193 196 198 199 199 196 191 185 181 179 178 179 180 181 182 183 186 189 192 194 196 197 199 201 203 203 205 206 207 206 206 207 209 211 213 215 216 217 219 221 222 224 225
182 182 183 185 185 185 185 184 183 183 183 185 187 188 188 189 190 192 193 193 193 192 191 191 193 194 194 195 198 200 201 200 196 189 184 183 184 186 188 190 192 194 196 197 198 199 199 201 203 205 206 207 207 208 209 208 208 208 210 213 214 215 216 217 219 221 222 223 225
182 181 182 184 185 185 184 184 184 184 185 187 188 189 190 192 193 194 195 195 195 195 194 194 196 196 196 196 197 199 201 202 201 197 193 190 190 192 194 196 198 200 202 204 204 203 203 203 205 207 208 208 209 209 210 210 210 210 211 214 215 216 216 218 220 222 223 224 225
183 183 183 184 185 185 184 184 185 185 186 188 189 190 191 193 194 195 197 197 198 198 198 198 200 200 199 197 197 198 199 202 203 203 201 198 196 195 196 198 199 201 204 207 208 208 207 207 208 209 209 209 209 210 211 211 212 212 213 215 216 217 217 218 221 222 224 225 226
184 185 185 185 184 184 184 185 185 186 188 189 190 191 192 193 194 196 198 199 200 200 201 202 203 203 203 201 199 198 198 201 203 205 205 203 200 199 199 199 199 201 205 208 211 211 211 210 210 210 211 211 210 211 212 213 213 214 216 217 217 218 219 220 222 223 225 227 227
185 186 185 185 184 184 184 185 187 188 189 190 191 191 192 193 195 196 198 200 201 202 203 204 204 205 206 205 202 200 199 200 202 205 207 208 207 207 206 202 201 202 205 209 212 214 214 213 213 212 213 212 212 213 214 215 216 217 218 219 219 220 221 222 224 225 227 228 229
185 185 185 185 184 184 185 186 188 189 190 191 192 192 193 194 195 196 198 200 201 202 203 204 205 206 207 207 205 203 201 201 202 204 207 210 211 212 211 210 206 205 206 210 213 215 215 215 214 214 214 214 214 215 216 216 217 219 220 221 221 222 223 224 225 227 228 230 231
185 185 185 185 184 184 185 187 188 189 190 191 192 192 193 194 195 196 197 199 200 201 202 203 204 205 206 206 206 205 204 203 203 204 206 209 212 213 214 214 212 209 209 211 214 216 216 216 215 215 215 215 216 217 217 218 218 220 221 223 224 225 226 227 227 228 229 230 232
185 185 185 184 183 184 185 187 188 189 190 191 191 192 193 194 195 196 197 198 199 199 200 201 202 204 204 205 205 205 204 204 204 205 207 210 212 214 215 215 213 212 212 213 215 216 216 216 216 216 216 216 217 218 218 219 219 221 223 224 226 227 228 229 229 230 230 231 232
186 185 185 184 184 184 186 187 188 188 189 190 192 192 192 193 194 195 196 197 197 198 198 199 200 201 202 203 204 205 205 206 207 207 209 211 212 213 214 214 213 213 214 215 216 217 217 217 216 216 217 217 218 219 220 220 221 222 224 226 227 229 230 231 231 231 232 232 233
186 186 186 185 185 186 187 188 189 189 189 190 192 192 192 193 194 195 196 197 197 197 198 198 199 200 202 204 205 206 207 208 209 209 210 211 211 211 212 212 213 214 215 216 216 217 217 217 217 217 217 218 219 220 221 222 223 224 226 227 229 230 231 232 232 233 233 233 234
186 186 187 187 188 188 189 189 190 190 190 191 193 193 193 193 194 195 196 197 197 198 199 200 201 202 203 205 206 207 208 209 209 209 209 209 209 209 210 211 212 214 215 216 216 217 217 217 217 218 218 219 220 222 223 224 225 226 227 228 229 231 232 233 233 234 235 235 236
187 187 188 189 190 190 191 191 191 191 191 192 193 194 195 195 195 195 197 198 199 200 201 202 203 204 205 206 206 207 207 207 208 207 207 207 207 207 208 210 212 214 215 215 216 216 216 217 217 218 219 220 222 223 224 225 226 227 228 228 229 230 232 233 234 235 236 236 237
190 189 189 189 191 192 193 193 193 193 193 194 195 196 197 197 197 197 198 199 201 202 203 204 205 205 205 204 204 204 205 205 205 205 205 206 206 207 208 210 211 212 214 214 215 215 216 216 217 218 219 221 222 224 225 227 228 228 228 229 229 230 231 232 233 234 235 235 235
193 191 190 190 191 192 193 194 194 194 195 196 196 197 198 199 199 199 199 200 201 203 204 204 205 204 203 202 201 201 202 203 204 204 204 205 205 206 207 208 210 211 212 213 214 215 216 217 218 219 220 221 223 224 226 227 228 229 230 230 231 231 231 231 232 231 231 232 232
196 196 194 192 191 192 193 193 194 195 196 197 197 198 199 200 200 200 200 200 201 203 204 204 204 203 201 200 199 199 201 203 204 204 204 204 205 205 206 207 208 209 210 212 213 215 216 218 219 220 221 222 223 224 226 227 229 230 232 232 232 231 230 228 227 227 227 228 230
198 199 197 195 193 192 192 193 194 195 197 197 198 199 199 200 201 200 200 199 200 202 204 204 203 202 201 199 198 198 200 202 204 205 205 205 205 205 206 206 207 208 210 211 213 215 216 218 219 220 221 222 223 224 226 227 229 230 232 232 231 229 227 225 224 225 226 228 230
198 199 199 198 196 194 192 192 193 195 196 197 197 198 199 200 200 200 199 198 199 201 204 205 205 203 202 200 199 199 200 202 204 206 207 207 207 207 207 207 208 209 210 212 213 214 216 218 219 220 221 222 223 224 225 226 227 228 229 229 228 226 224 224 224 225 227 229 231
198 198 199 199 198 196 195 194 194 195 196 197 197 198 199 199 199 199 199 198 199 201 203 206 207 207 205 203 202 201 201 202 204 206 208 210 210 210 210 210 210 211 212 213 214 215 216 217 218 220 221 222 223 224 224 225 225 224 223 222 222 222 222 224 225 227 228 230 232
198 198 198 199 199 198 197 196 195 195 196 197 198 198 199 199 199 199 198 198 199 200 202 206 208 209 209 208 206 205 204 204 204 206 208 210 212 213 213 213 213 213 214 215 215 216 216 217 218 219 220 221 222 223 223 223 222 221 221 220 220 220 221 223 225 227 229 230 232
199 199 198 199 199 199 199 197 196 196 196 197 199 200 200 200 199 199 198 199 199 200 202 204 207 210 211 211 211 210 209 207 206 206 207 209 212 214 215 216 217 217 217 217 218 218 219 219 220 220 221 221 222 222 221 221 221 220 220 221 221 220 220 221 224 226 229 231 233
199 200 200 200 200 200 199 199 197 197 197 198 200 201 201 200 199 199 199 199 200 200 201 203 206 209 211 213 213 213 212 210 208 207 208 209 211 214 216 218 220 221 221 222 222 222 222 222 223 223 223 222 221 220 219 218 218 217 217 218 219 220 221 222 224 226 229 231 233
198 200 202 203 202 202 201 200 199 198 198 199 200 202 202 201 200 200 200 200 200 201 201 203 204 206 209 211 213 214 214 212 210 209 209 210 212 214 217 220 222 224 226 226 226 226 226 226 227 227 226 224 221 218 217 216 215 214 215 216 218 220 221 223 225 226 228 230 232
198 199 202 205 205 205 203 201 200 200 200 200 201 202 202 202 201 201 201 201 201 202 202 203 203 205 206 209 211 213 213 212 211 210 211 211 213 216 218 221 223 226 228 230 230 230 230 231 231 232 231 227 222 218 215 212 212 212 214 217 218 219 220 221 223 225 228 231 236
197 198 200 204 206 207 205 204 202 202 201 201 202 202 203 203 203 203 203 203 203 203 203 203 203 203 204 206 208 209 210 211 212 212 213 214 215 217 220 221 224 227 229 231 232 233 233 234 234 235 235 232 225 219 214 211 211 212 214 215 217 218 219 220 223 226 230 237 247
197 197 198 201 205 207 207 206 205 204 203 203 203 203 203 204 204 205 205 205 204 204 204 203 203 203 204 205 206 207 208 210 211 212 213 215 217 219 221 223 225 227 230 232 233 234 234 234 235 235 235 233 226 220 216 212 211 212 213 213 214 215 218 221 225 231 238 249 260
197 197 197 199 202 205 207 207 206 205 205 204 204 204 205 205 206 206 206 206 205 205 204 203 203 203 203 203 204 205 207 209 211 213 215 216 218 221 223 225 226 228 231 234 236 236 236 235 235 234 234 232 229 224 218 214 212 212 212 212 213 216 220 224 230 240 251 261 267
196 197 197 198 200 203 206 207 207 207 206 206 206 206 206 207 207 207 207 207 206 206 205 204 204 204 203 203 203 204 206 209 212 214 216 217 219 222 224 227 228 230 233 236 237 238 238 237 236 234 233 232 230 225 220 214 211 211 212 214 217 221 225 232 241 252 261 267 271
197 197 197 198 199 201 204 206 207 208 208 208 208 208 208 208 208 208 208 208 207 207 206 206 205 205 205 204 204 204 206 209 212 214 216 218 220 222 225 227 229 231 233 235 237 238 238 237 236 234 233 231 229 224 219 213 211 211 213 216 221 227 234 245 258 266 271 272 273
197 197 197 198 199 201 202 204 206 208 209 209 209 209 209 209 209 209 209 209 208 208 208 208 207 207 206 205 205 205 206 208 210 213 215 217 219 220 223 224 227 230 229 229 231 234 236 237 236 234 232 230 226 222 217 213 211 212 215 218 225 235 248 263 271 272 269 265 261
199 199 199 199 199 200 201 203 205 207 209 211 211 211 211 210 210 210 209 209 209 209 209 209 209 208 207 206 205 205 207 208 210 212 214 215 216 218 218 217 218 223 224 222 221 223 228 233 235 235 233 229 225 221 217 214 213 214 217 224 235 251 263 269 262 250 242 241 241
200 201 201 200 199 199 200 202 203 206 208 211 212 212 212 212 212 211 210 210 209 209 209 209 209 208 206 205 205 206 209 212 213 215 215 215 217 217 213 201 197 207 213 212 212 213 217 222 227 229 229 226 222 218 216 215 217 221 227 235 248 258 255 224 205 207 217 230 233
202 202 202 201 200 199 199 200 202 204 207 209 211 213 214 214 213 213 212 211 209 209 209 209 209 208 208 209 208 208 209 213 217 220 218 212 208 202 189 168 165 181 194 198 201 204 208 212 215 218 219 218 218 219 221 223 229 235 239 240 232 199 166 162 164 156 131 93 181
204 204 203 203 202 201 200 200 201 202 205 207 209 211 213 214 214 215 214 213 212 212 213 215 215 213 208 200 194 173 102 105 141 162 159 138 120 129 141 138 132 141 167 183 190 196 200 203 204 206 209 217 226 231 233 234 236 236 230 204 162 138 129 130 127 117 102 88 90
205 205 204 204 204 204 203 201 201 201 202 204 206 208 210 212 213 214 215 214 215 215 211 200 193 182 165 149 142 108 81 84 92 98 102 102 102 109 115 113 102 101 128 166 180 187 191 193 195 199 207 221 232 235 233 229 224 211 184 154 136 123 115 112 106 96 86 79 75
206 206 205 204 205 205 205 204 203 201 200 201 203 205 206 208 210 211 213 215 214 194 140 114 116 118 119 120 119 107 94 89 89 91 94 96 97 97 97 94 89 86 94 124 156 174 182 187 190 194 202 211 219 219 212 199 183 163 144 132 126 120 112 104 95 86 78 72 68
Height
724 726 727 729 730 732 734 735 737 739 740 742 744 746 749 751 753 754 756 757 758 759 759 760 761 763 764 764 765 765 766 768 769 770 772 773 775 776 778 779 780 782 783 785 787 789 791 792 794 795 796 797 798 799 800 801 802 803 804 806 807 808 809 809 810 811 812 812 813
723 724 726 728 729 731 733 734 736 738 739 741 743 745 747 749 751 753 754 756 757 758 759 759 761 762 763 764 764 764 765 766 768 769 770 772 773 775 776 778 779 780 782 784 786 788 789 791 792 794 795 796 797 798 799 799 801 802 803 804 805 806 807 808 809 809 810 811 811
722 724 725 727 729 730 732 733 735 737 739 740 742 744 746 747 749 751 753 754 756 757 758 759 759 761 762 763 763 764 764 765 767 768 769 770 772 773 775 776 777 779 781 783 785 786 788 790 791 792 794 795 796 796 797 798 799 800 801 802 804 804 805 806 807 808 809 809 810
721 723 724 725 727 729 730 732 734 735 737 739 741 743 744 746 748 750 752 753 754 755 756 757 758 759 761 762 763 763 764 764 766 767 768 769 770 772 773 775 776 779 781 782 784 785 787 789 790 791 792 793 794 795 796 797 798 799 800 801 802 803 804 804 805 806 807 807 808
720 721 723 724 726 727 729 730 732 734 736 738 740 742 744 745 747 749 750 752 753 754 755 756 757 758 759 761 762 763 764 764 765 766 767 769 770 771 773 774 776 778 780 782 783 785 786 788 789 790 791 792 793 794 794 795 796 797 798 799 800 801 802 803 803 804 805 805 806
718 720 721 723 724 726 728 730 731 733 735 737 739 740 742 744 745 747 749 750 751 752 754 755 756 758 759 760 762 763 763 764 765 766 767 768 769 771 773 774 776 778 779 781 783 784 785 787 788 789 790 791 792 792 793 794 794 796 797 798 798 799 800 800 801 802 803 804 804
717 718 720 722 724 725 727 729 730 732 734 736 738 739 740 742 744 745 747 748 750 751 753 754 755 757 758 759 761 762 763 763 764 765 766 767 769 770 772 774 775 777 779 780 782 783 784 786 787 788 789 789 790 790 791 792 793 794 795 796 796 797 798 799 799 800 801 801 802
715 717 719 720 722 724 725 727 729 731 733 734 736 737 739 740 742 744 745 747 749 750 751 753 754 756 757 758 759 760 761 762 763 764 765 767 768 769 771 772 774 776 777 779 781 782 783 784 786 786 787 788 788 789 789 790 791 792 793 794 794 795 796 796 797 798 799 799 799
714 716 717 719 721 722 724 725 727 729 731 732 734 735 737 739 741 743 744 746 747 749 750 752 753 754 756 757 758 759 760 761 762 764 764 766 767 768 770 771 773 774 776 778 779 781 782 783 784 785 785 786 786 786 787 788 789 790 791 791 792 793 793 794 795 796 796 797 797
712 714 716 718 719 721 723 724 726 728 729 731 732 734 736 738 739 741 743 744 746 748 749 751 752 753 754 755 756 757 759 760 761 763 764 765 766 767 769 770 771 773 775 777 779 780 781 782 782 783 783 784 784 784 785 786 787 788 789 789 790 790 791 792 793 793 794 794 794
710 712 714 716 718 719 721 723 725 726 728 729 731 733 734 736 738 739 741 743 745 746 748 749 750 751 753 754 754 756 757 758 760 761 763 764 765 767 768 769 770 772 774 775 777 779 779 780 780 781 781 781 782 782 783 784 785 786 786 787 788 788 789 789 790 791 791 791 792
709 710 712 714 716 718 719 721 723 724 726 728 729 731 733 734 736 738 739 741 743 744 745 747 748 749 751 752 753 754 755 757 758 760 761 763 764 766 767 768 769 770 772 774 776 777 778 778 778 779 779 779 779 780 781 782 783 784 784 785 785 786 786 787 787 788 789 789 789
707 709 710 712 714 716 718 719 721 723 724 726 727 729 730 732 734 735 737 739 740 741 743 744 746 747 749 750 751 752 754 755 756 758 760 761 763 764 766 767 768 769 770 772 774 774 775 775 775 776 776 777 777 778 779 779 780 781 782 782 783 783 784 784 784 785 786 787 787
706 707 709 711 713 714 716 718 719 721 722 724 725 727 728 730 732 734 735 736 738 739 741 742 744 745 746 748 749 750 752 753 755 756 758 759 761 762 764 765 766 767 768 770 771 772 772 772 773 773 774 774 774 775 776 777 778 779 779 780 780 780 781 781 782 783 784 784 785
705 706 708 709 711 713 714 716 717 719 720 722 724 725 726 728 730 731 733 734 736 737 739 740 741 743 744 746 747 749 750 752 753 754 756 758 759 760 761 762 764 765 766 767 768 769 769 769 770 770 771 771 772 773 774 775 775 776 777 777 778 778 779 779 780 781 781 782 783
703 705 706 708 709 711 713 714 716 717 719 720 722 723 725 726 728 729 731 732 734 735 737 738 739 741 742 744 745 747 748 750 751 752 754 754 756 757 758 759 761 762 763 764 765 766 766 767 767 768 768 769 770 771 772 772 773 774 774 774 775 776 776 777 778 779 779 779 780
702 704 705 706 708 709 711 712 714 715 717 719 720 722 723 724 726 728 729 730 732 733 734 736 737 739 740 742 743 744 746 747 748 749 750 751 752 754 755 756 758 759 760 761 762 763 764 764 765 765 766 767 768 768 769 770 771 771 772 772 773 774 774 775 775 776 777 777 778
700 701 703 705 706 708 709 711 712 714 715 717 719 720 721 723 724 726 727 729 730 731 732 734 735 736 738 739 740 741 743 744 744 746 747 748 749 751 752 754 755 756 757 759 759 760 761 762 762 763 764 764 765 766 767 768 768 769 770 770 771 771 772 773 773 774 774 775 775
698 699 701 703 704 706 708 709 711 712 714 715 717 719 720 721 722 724 725 726 728 729 730 732 733 734 735 736 737 738 739 741 742 743 744 745 747 748 749 751 752 754 755 756 757 758 759 759 760 761 761 762 763 764 764 765 766 767 768 768 769 769 770 770 771 772 772 773 773
695 697 699 701 703 705 706 708 709 711 712 714 715 717 718 719 720 722 723 724 726 727 728 729 730 731 732 733 734 736 737 738 739 740 742 743 744 746 747 748 750 751 752 753 754 755 756 757 758 759 759 760 761 762 763 764 764 765 765 766 766 767 767 768 769 769 770 770 771
694 695 697 699 701 703 704 706 708 709 711 712 714 715 716 717 719 719 721 722 724 725 726 727 727 728 729 730 732 733 734 736 737 738 739 740 741 743 744 746 747 748 749 751 752 753 754 754 755 756 757 758 759 760 760 761 762 763 764 764 764 764 765 766 766 767 768 768 769
692 693 695 696 698 700 702 704 706 707 709 710 712 713 714 715 717 718 719 720 722 723 724 724 725 726 727 728 729 731 732 734 735 736 737 738 739 740 742 743 744 745 747 748 749 750 751 752 753 754 755 756 757 758 758 759 760 761 761 762 762 762 763 764 764 765 766 767 768
690 692 693 694 696 698 700 702 703 705 707 708 709 711 712 714 715 716 718 719 720 721 722 723 724 724 725 727 728 729 730 732 733 734 735 736 737 738 739 741 742 743 744 745 746 747 748 749 750 751 752 753 754 755 756 757 758 759 759 760 760 760 761 762 763 764 764 765 766
689 690 691 693 694 696 698 699 701 703 704 706 707 709 710 711 713 714 716 717 718 719 720 721 722 723 724 725 727 728 729 730 731 732 734 734 735 736 738 739 739 741 742 743 744 745 746 747 748 749 750 751 752 753 754 754 755 756 757 758 758 759 760 760 761 762 763 764 765
686 688 689 691 692 694 695 697 699 700 702 703 705 706 708 709 710 712 714 715 716 718 719 720 721 722 723 724 725 726 727 728 729 731 732 733 734 735 736 737 738 739 740 741 742 743 744 745 746 747 748 749 750 751 751 752 753 754 754 755 756 757 758 759 759 760 761 762 763
684 686 687 689 690 691 693 694 696 698 700 701 703 704 705 707 708 709 711 713 714 715 717 719 720 721 722 723 724 725 726 727 728 729 730 731 733 734 735 736 737 738 739 739 740 741 743 743 744 745 746 747 748 749 749 750 751 752 752 753 754 755 756 757 758 759 760 761 762
683 684 685 687 688 689 691 692 694 696 698 699 700 702 703 704 706 707 709 710 712 714 715 717 718 719 720 722 723 724 724 725 726 728 729 730 731 732 734 734 735 736 737 738 739 740 741 742 743 744 745 745 746 747 747 748 749 750 751 752 753 754 755 756 757 758 759 760 761
681 683 684 685 686 688 689 690 692 694 695 697 699 700 701 703 704 705 707 708 710 712 713 715 716 718 719 720 721 722 723 724 725 726 728 729 730 731 732 733 734 735 736 737 738 739 740 741 742 743 743 744 744 745 746 746 748 749 749 751 752 753 754 755 756 757 758 759 760
679 681 683 684 685 686 687 689 690 692 693 695 696 698 699 701 702 703 705 706 708 709 711 713 714 716 717 718 719 720 722 723 724 725 727 728 729 730 731 732 733 734 735 736 737 737 738 739 740 741 742 743 743 744 744 745 746 747 748 749 750 751 752 754 755 756 757 758 759
678 679 681 682 684 685 686 687 688 690 691 693 694 696 697 699 700 701 703 704 706 707 709 710 712 714 715 716 717 719 720 721 723 724 725 727 728 729 730 731 732 733 734 734 735 736 737 738 739 740 741 742 742 742 743 744 744 745 746 747 748 749 751 752 753 754 756 757 758
676 678 679 681 683 684 685 686 687 688 690 691 693 694 695 697 698 699 700 702 704 705 707 709 710 711 713 714 716 717 719 720 721 723 724 725 726 727 729 730 731 732 732 733 734 735 736 737 738 739 739 740 741 742 742 743 744 744 744 746 747 748 750 751 752 754 754 756 757
674 676 678 679 681 682 684 684 686 687 688 689 691 692 693 694 696 697 699 700 702 704 705 707 708 709 711 713 714 715 717 719 720 721 723 724 725 726 727 728 729 730 731 731 732 733 734 735 736 737 738 739 740 741 741 742 743 744 744 745 746 748 749 750 751 753 754 755 756
672 674 676 678 679 681 682 684 684 685 687 688 689 690 691 693 694 696 697 699 700 702 703 705 706 708 709 711 712 714 715 717 719 720 721 722 724 725 726 727 728 729 730 730 731 731 732 733 734 735 736 737 739 739 740 741 742 743 744 745 746 747 749 749 750 752 753 755 756
670 672 674 676 678 679 681 682 683 684 685 686 687 688 689 691 693 694 696 697 699 700 702 703 704 706 708 709 711 713 714 716 717 719 720 721 723 724 725 726 728 729 729 729 729 730 731 732 733 734 735 736 738 739 739 740 742 743 744 745 746 747 748 749 750 752 753 754 755
668 670 672 674 676 677 679 680 682 683 684 684 685 686 688 689 691 692 694 695 697 699 700 702 703 705 707 708 710 712 713 715 716 718 719 720 721 723 724 725 728 727 726 727 728 729 729 731 732 733 734 736 737 738 739 740 741 742 743 744 746 747 748 750 751 752 753 753 754
666 668 669 671 673 675 677 679 680 681 682 683 684 685 686 688 689 690 692 694 696 697 699 701 702 704 706 708 709 711 712 713 714 716 717 718 719 721 723 724 726 725 724 724 725 727 729 730 731 732 734 735 736 737 739 739 741 742 743 744 745 747 749 750 751 751 751 751 751
664 665 667 669 671 673 674 676 678 679 680 681 682 684 685 686 688 689 691 693 694 696 698 699 701 703 704 706 708 709 711 712 713 714 715 717 718 720 722 723 722 722 721 722 724 725 727 729 730 731 733 734 735 737 738 739 740 742 743 744 746 747 749 749 749 748 749 750 750
662 664 665 667 668 670 672 674 676 677 679 680 681 682 684 685 687 688 690 691 693 695 697 698 700 702 704 705 708 710 712 713 713 714 715 717 718 719 719 720 720 720 720 721 722 724 725 727 728 730 731 733 735 736 738 739 740 741 743 744 746 747 748 747 747 748 749 749 750
660 662 663 665 666 668 669 671 673 675 676 678 680 681 683 684 686 687 689 690 692 694 696 698 699 701 703 704 707 709 711 710 711 712 714 716 717 717 718 718 719 720 720 721 722 723 724 725 727 729 730 732 734 736 737 739 740 741 743 744 745 746 746 746 747 748 748 749 749
658 660 661 663 664 666 667 669 670 672 674 676 678 680 682 683 685 686 688 690 692 694 696 697 698 699 701 702 705 707 707 707 709 710 712 714 715 716 717 718 719 720 721 721 721 722 723 725 726 728 729 731 733 735 736 738 739 741 742 743 744 745 746 746 747 747 748 749 749
656 658 659 661 662 664 665 666 668 669 672 674 676 678 680 682 684 686 688 689 692 694 695 695 697 698 699 701 705 708 709 709 711 713 714 715 716 716 717 719 720 721 721 722 722 723 724 724 726 727 729 730 732 734 735 737 739 740 742 743 743 744 745 746 747 748 748 749 749